�������l�o���
Date,Time,MP-1(��Sv/h),MP-2(��Sv/h),MP-3(��Sv/h),MP-4(��Sv/h),MP-5(��Sv/h),MP-6(��Sv/h),MP-7(��Sv/h),����,����(m/s),���J
2018/08/11,00:00,0.307,0.195,0.316,0.304,0.281,0.154,0.096,�k,3.1,�L
2018/08/11,00:10,0.310,0.194,0.315,0.304,0.286,0.153,0.095,�k,3.5,�L
2018/08/11,00:20,0.311,0.194,0.315,0.301,0.286,0.155,0.096,�k,4.1,�L
2018/08/11,00:30,0.308,0.194,0.317,0.301,0.282,0.155,0.095,�k,3.6,�L
2018/08/11,00:40,0.309,0.194,0.315,0.305,0.285,0.154,0.097,�k�k��,4.6,�L
2018/08/11,00:50,0.312,0.194,0.315,0.303,0.287,0.155,0.097,�k,3.4,�L
2018/08/11,01:00,0.309,0.196,0.318,0.301,0.284,0.156,0.097,�k,3.4,�L
2018/08/11,01:10,0.307,0.194,0.316,0.303,0.284,0.154,0.097,�k,3.5,��
2018/08/11,01:20,0.312,0.193,0.313,0.303,0.286,0.154,0.095,�k,3.3,��
2018/08/11,01:30,0.309,0.194,0.315,0.300,0.285,0.154,0.095,�k,2.5,��
2018/08/11,01:40,0.307,0.193,0.316,0.300,0.280,0.154,0.095,�k,1.9,��
2018/08/11,01:50,0.307,0.191,0.312,0.303,0.283,0.152,0.094,�k,2.2,��
2018/08/11,02:00,0.310,0.193,0.312,0.301,0.285,0.151,0.094,�k,2.0,��
2018/08/11,02:10,0.309,0.193,0.315,0.298,0.282,0.153,0.094,�k,2.0,��
2018/08/11,02:20,0.305,0.192,0.313,0.302,0.281,0.153,0.095,�k�k��,2.3,�L
2018/08/11,02:30,0.308,0.192,0.311,0.300,0.285,0.151,0.094,�k,2.6,�L
2018/08/11,02:40,0.311,0.194,0.315,0.298,0.282,0.151,0.093,�k,1.8,�L
2018/08/11,02:50,0.305,0.193,0.314,0.300,0.280,0.153,0.094,�k�k��,1.4,�L
2018/08/11,03:00,0.305,0.192,0.312,0.302,0.282,0.152,0.095,�k,1.9,�L
2018/08/11,03:10,0.310,0.193,0.312,0.300,0.284,0.152,0.093,�k,2.2,�L
2018/08/11,03:20,0.308,0.193,0.317,0.298,0.281,0.153,0.095,�k,2.6,�L
2018/08/11,03:30,0.306,0.191,0.312,0.302,0.282,0.153,0.096,�k,2.0,�L
2018/08/11,03:40,0.310,0.195,0.315,0.302,0.286,0.154,0.096,�k,1.8,�L
2018/08/11,03:50,0.311,0.195,0.316,0.301,0.283,0.154,0.096,�k,1.7,�L
2018/08/11,04:00,0.309,0.194,0.316,0.303,0.281,0.155,0.096,�k,2.1,�L
2018/08/11,04:10,0.309,0.195,0.313,0.303,0.287,0.154,0.096,�k,2.4,�L
2018/08/11,04:20,0.313,0.195,0.317,0.303,0.286,0.154,0.097,�k�k��,1.7,�L
2018/08/11,04:30,0.309,0.193,0.316,0.303,0.281,0.154,0.097,�k�k��,2.7,�L
2018/08/11,04:40,0.309,0.194,0.312,0.303,0.284,0.154,0.095,�k,2.5,��
2018/08/11,04:50,0.310,0.195,0.317,0.300,0.285,0.154,0.096,�k,3.6,��
2018/08/11,05:00,0.309,0.192,0.314,0.299,0.281,0.154,0.095,�k,3.4,��
2018/08/11,05:10,0.306,0.193,0.312,0.303,0.280,0.153,0.095,�k,3.2,��
2018/08/11,05:20,0.309,0.194,0.314,0.301,0.283,0.151,0.094,�k,3.8,��
2018/08/11,05:30,0.312,0.192,0.313,0.298,0.282,0.152,0.094,�k,3.9,�L
2018/08/11,05:40,0.306,0.191,0.311,0.301,0.279,0.152,0.095,�k,4.1,�L
2018/08/11,05:50,0.305,0.193,0.311,0.300,0.283,0.152,0.094,�k,3.6,��
2018/08/11,06:00,0.308,0.192,0.315,0.298,0.283,0.151,0.093,�k,2.8,��
2018/08/11,06:10,0.307,0.190,0.312,0.299,0.280,0.152,0.095,�k,3.1,��
2018/08/11,06:20,0.305,0.193,0.311,0.302,0.280,0.151,0.093,�k,2.6,��
2018/08/11,06:30,0.309,0.193,0.315,0.299,0.283,0.152,0.093,�k,1.4,��
2018/08/11,06:40,0.307,0.192,0.313,0.297,0.281,0.151,0.093,�k,1.2,��
2018/08/11,06:50,0.306,0.191,0.310,0.301,0.277,0.152,0.094,-,CALM,��
2018/08/11,07:00,0.305,0.193,0.313,0.301,0.282,0.153,0.093,�k,0.7,��
2018/08/11,07:10,0.309,0.192,0.313,0.298,0.283,0.151,0.092,-,CALM,��
2018/08/11,07:20,0.308,0.192,0.313,0.298,0.281,0.150,0.093,��쐼,0.7,��
2018/08/11,07:30,0.306,0.190,0.309,0.301,0.278,0.151,0.094,��,1.0,��
2018/08/11,07:40,0.304,0.192,0.315,0.301,0.281,0.152,0.094,-,CALM,��
2018/08/11,07:50,0.309,0.191,0.313,0.299,0.284,0.151,0.093,���쓌,0.7,��
2018/08/11,08:00,0.309,0.191,0.311,0.298,0.281,0.151,0.094,��,0.8,��
2018/08/11,08:10,0.308,0.190,0.308,0.301,0.278,0.151,0.094,��,0.8,�L
2018/08/11,08:20,0.304,0.192,0.313,0.300,0.280,0.151,0.093,-,CALM,��
2018/08/11,08:30,0.308,0.193,0.313,0.298,0.284,0.151,0.093,-,CALM,��
2018/08/11,08:40,0.309,0.191,0.311,0.297,0.283,0.151,0.093,�k��,1.2,��
2018/08/11,08:50,0.307,0.190,0.311,0.302,0.281,0.151,0.093,�k�k��,0.7,�L
2018/08/11,09:00,0.305,0.190,0.315,0.299,0.279,0.151,0.093,-,CALM,��
2018/08/11,09:10,0.305,0.192,0.313,0.297,0.278,0.152,0.093,���k��,1.0,��
2018/08/11,09:20,0.308,0.193,0.311,0.297,0.282,0.151,0.093,���쓌,0.9,��
2018/08/11,09:30,0.309,0.190,0.309,0.300,0.284,0.151,0.093,��쐼,0.8,��
2018/08/11,09:40,0.307,0.190,0.313,0.302,0.281,0.151,0.094,-,CALM,��
2018/08/11,09:50,0.304,0.189,0.315,0.300,0.280,0.152,0.093,��쓌,1.2,��
2018/08/11,10:00,0.304,0.191,0.312,0.297,0.278,0.152,0.093,��,1.6,��
2018/08/11,10:10,0.307,0.192,0.310,0.296,0.281,0.151,0.093,��,1.5,�L
2018/08/11,10:20,0.311,0.193,0.312,0.303,0.283,0.152,0.094,��쐼,1.7,�L
2018/08/11,10:30,0.309,0.192,0.315,0.300,0.281,0.151,0.094,��쐼,1.7,�L
2018/08/11,10:40,0.306,0.192,0.314,0.298,0.280,0.153,0.094,��쐼,1.6,��
2018/08/11,10:50,0.306,0.193,0.311,0.299,0.280,0.153,0.094,-,CALM,��
2018/08/11,11:00,0.311,0.194,0.312,0.303,0.281,0.152,0.094,�k��,0.6,��
2018/08/11,11:10,0.310,0.194,0.315,0.303,0.279,0.151,0.093,�쐼,1.2,��
2018/08/11,11:20,0.308,0.193,0.315,0.302,0.279,0.151,0.094,-,CALM,��
2018/08/11,11:30,0.309,0.194,0.312,0.300,0.280,0.151,0.093,���쓌,1.1,��
2018/08/11,11:40,0.307,0.193,0.312,0.300,0.283,0.152,0.094,���k��,0.8,��
2018/08/11,11:50,0.307,0.192,0.312,0.299,0.280,0.152,0.093,-,CALM,��
2018/08/11,12:00,0.306,0.191,0.309,0.298,0.282,0.152,0.093,��,0.7,��
2018/08/11,12:10,0.305,0.191,0.309,0.298,0.281,0.152,0.093,��,1.7,��
2018/08/11,12:20,0.306,0.192,0.310,0.298,0.281,0.152,0.092,��쓌,1.8,��
2018/08/11,12:30,0.305,0.192,0.309,0.298,0.282,0.151,0.093,��쓌,2.5,��
2018/08/11,12:40,0.307,0.192,0.309,0.299,0.281,0.152,0.094,��,2.4,��
2018/08/11,12:50,0.306,0.193,0.311,0.299,0.283,0.152,0.093,��쓌,3.0,��
2018/08/11,13:00,0.307,0.193,0.313,0.300,0.283,0.152,0.093,��쓌,3.2,��
2018/08/11,13:10,0.308,0.193,0.312,0.300,0.283,0.153,0.094,��,3.5,��
2018/08/11,13:20,0.309,0.194,0.312,0.300,0.284,0.153,0.094,��,3.7,��
2018/08/11,13:30,0.308,0.192,0.313,0.301,0.282,0.153,0.095,��,3.4,��
2018/08/11,13:40,0.308,0.193,0.313,0.302,0.283,0.153,0.094,��쓌,2.5,��
2018/08/11,13:50,0.308,0.193,0.313,0.302,0.285,0.153,0.094,��,2.6,��
2018/08/11,14:00,0.309,0.194,0.314,0.302,0.283,0.154,0.095,��쓌,2.1,��
2018/08/11,14:10,0.311,0.194,0.316,0.301,0.285,0.153,0.094,�쓌,3.2,��
2018/08/11,14:20,0.310,0.193,0.316,0.302,0.283,0.154,0.094,���쓌,2.4,��
2018/08/11,14:30,0.309,0.193,0.315,0.303,0.282,0.153,0.094,��,2.7,��
2018/08/11,14:40,0.309,0.193,0.315,0.301,0.284,0.152,0.094,���쓌,1.8,��
2018/08/11,14:50,0.309,0.192,0.314,0.301,0.282,0.152,0.094,���쓌,2.8,��
2018/08/11,15:00,0.310,0.193,0.314,0.302,0.283,0.153,0.094,�쓌,2.8,��
2018/08/11,15:10,0.311,0.194,0.314,0.301,0.283,0.153,0.095,�쓌,2.6,��
2018/08/11,15:20,0.308,0.193,0.314,0.302,0.285,0.153,0.094,�쓌,2.5,��
2018/08/11,15:30,0.311,0.193,0.313,0.300,0.283,0.153,0.094,��쓌,2.0,��
2018/08/11,15:40,0.308,0.194,0.314,0.299,0.283,0.153,0.094,��쓌,2.0,��
2018/08/11,15:50,0.308,0.193,0.314,0.299,0.284,0.153,0.094,��쓌,2.1,��
2018/08/11,16:00,0.309,0.192,0.312,0.300,0.282,0.153,0.093,��,2.4,��
2018/08/11,16:10,0.310,0.192,0.312,0.304,0.282,0.153,0.094,��쓌,2.2,��
2018/08/11,16:20,0.311,0.192,0.312,0.303,0.284,0.152,0.093,��,2.0,��
2018/08/11,16:30,0.308,0.193,0.311,0.302,0.284,0.152,0.094,��,2.6,��
2018/08/11,16:40,0.309,0.192,0.314,0.300,0.283,0.152,0.095,��쓌,2.0,��
2018/08/11,16:50,0.308,0.191,0.317,0.301,0.283,0.152,0.094,��,3.2,��
2018/08/11,17:00,0.308,0.193,0.316,0.301,0.283,0.152,0.094,��쓌,2.7,��
2018/08/11,17:10,0.309,0.195,0.314,0.305,0.283,0.152,0.094,��,2.3,��
2018/08/11,17:20,0.308,0.193,0.312,0.303,0.283,0.152,0.093,��,1.7,��
2018/08/11,17:30,0.309,0.192,0.313,0.302,0.283,0.151,0.094,��쓌,2.1,��
2018/08/11,17:40,0.308,0.192,0.317,0.299,0.283,0.153,0.094,��,1.9,��
2018/08/11,17:50,0.307,0.192,0.315,0.302,0.282,0.154,0.094,��쓌,1.6,��
2018/08/11,18:00,0.306,0.194,0.313,0.304,0.282,0.153,0.093,��쓌,2.7,��
2018/08/11,18:10,0.310,0.192,0.312,0.301,0.281,0.152,0.094,��쓌,3.1,��
2018/08/11,18:20,0.313,0.193,0.316,0.301,0.281,0.153,0.094,��,2.4,��
2018/08/11,18:30,0.310,0.192,0.316,0.300,0.284,0.153,0.093,��,2.9,��
2018/08/11,18:40,0.307,0.194,0.313,0.304,0.286,0.152,0.093,��,2.9,��
2018/08/11,18:50,0.308,0.194,0.311,0.301,0.284,0.152,0.094,��,2.5,��
2018/08/11,19:00,0.313,0.192,0.316,0.301,0.281,0.152,0.094,��쓌,1.4,��
2018/08/11,19:10,0.312,0.191,0.316,0.300,0.283,0.153,0.094,��쓌,1.8,��
2018/08/11,19:20,0.310,0.193,0.314,0.304,0.285,0.154,0.093,��,1.8,��
2018/08/11,19:30,0.307,0.195,0.311,0.303,0.284,0.153,0.094,��,1.2,��
2018/08/11,19:40,0.308,0.193,0.316,0.302,0.281,0.152,0.094,��쓌,0.8,��
2018/08/11,19:50,0.312,0.193,0.315,0.298,0.280,0.152,0.094,-,CALM,��
2018/08/11,20:00,0.310,0.193,0.316,0.303,0.284,0.153,0.094,-,CALM,��
2018/08/11,20:10,0.309,0.194,0.313,0.305,0.284,0.153,0.094,��,0.8,��
2018/08/11,20:20,0.306,0.192,0.315,0.301,0.282,0.152,0.094,��,1.4,��
2018/08/11,20:30,0.311,0.193,0.317,0.300,0.281,0.153,0.094,��쓌,0.6,��
2018/08/11,20:40,0.310,0.193,0.314,0.303,0.283,0.153,0.093,��쓌,0.9,��
2018/08/11,20:50,0.308,0.195,0.311,0.303,0.284,0.152,0.093,-,CALM,��
2018/08/11,21:00,0.307,0.192,0.315,0.301,0.283,0.152,0.095,-,CALM,��
2018/08/11,21:10,0.310,0.191,0.317,0.299,0.281,0.153,0.094,-,CALM,��
2018/08/11,21:20,0.311,0.193,0.314,0.303,0.282,0.154,0.093,��,0.6,��
2018/08/11,21:30,0.309,0.193,0.312,0.303,0.285,0.152,0.093,-,CALM,��
2018/08/11,21:40,0.306,0.193,0.316,0.301,0.284,0.152,0.095,-,CALM,��
2018/08/11,21:50,0.310,0.191,0.315,0.300,0.281,0.152,0.094,��쐼,0.6,��
2018/08/11,22:00,0.310,0.193,0.314,0.302,0.282,0.153,0.094,��쐼,1.1,��
2018/08/11,22:10,0.310,0.194,0.312,0.304,0.285,0.153,0.094,�쐼,0.8,��
2018/08/11,22:20,0.306,0.192,0.317,0.304,0.284,0.152,0.094,�쐼,1.0,��
2018/08/11,22:30,0.311,0.192,0.316,0.300,0.281,0.153,0.094,��,1.5,��
2018/08/11,22:40,0.311,0.193,0.313,0.304,0.283,0.153,0.093,-,CALM,��
2018/08/11,22:50,0.309,0.194,0.315,0.304,0.286,0.152,0.095,���쐼,0.8,��
2018/08/11,23:00,0.307,0.192,0.318,0.302,0.282,0.152,0.094,���k��,0.9,��
2018/08/11,23:10,0.312,0.194,0.314,0.301,0.282,0.154,0.093,���k��,0.7,��
2018/08/11,23:20,0.310,0.193,0.313,0.305,0.286,0.153,0.095,��,1.3,��
2018/08/11,23:30,0.308,0.193,0.317,0.305,0.287,0.153,0.095,���k��,0.8,��
2018/08/11,23:40,0.311,0.195,0.316,0.301,0.283,0.154,0.094,�k,2.3,��
2018/08/11,23:50,0.311,0.195,0.313,0.304,0.284,0.153,0.094,�k�k��,4.7,��
